Terminal Aerodrome Forecast
Issued by NWS Knoxville/Tri Cities, TN

Home | Current Version | Previous Version | Text Only | Print | Product List | Glossary On
Versions: 1 2 3 4 5 6 7 8 9 10 11 12 13 14 15 16 17 18 19 20 21 22 23
000
FTUS44 KMRX 231502 AAB
TAFTYS
TAF AMD
KTYS 231502Z 2315/2412 07010G18KT P6SM FEW035
     FM231800 03008KT P6SM FEW250
     FM240000 00000KT P6SM SKC=

USA.gov is the U.S. government's official web portal to all federal, state and local government web resources and services.